Time,TemperatureF,DewpointF,PressureIn,WindDirection,WindDirectionDegrees,WindSpeedMPH,WindSpeedGustMPH,Humidity,HourlyPrecipIn,Conditions,Clouds,dailyrainin,SoftwareType,DateUTC
2013-06-09 00:10:00,65.6,24.0,29.45,NNE,17,3.0,-999.0,21,-99.99,,,0.00,weatherlink.com 1.10,2013-06-09 06:10:00,
2013-06-09 00:25:00,62.3,25.0,29.48,NNE,17,3.0,-999.0,24,-99.99,,,0.00,weatherlink.com 1.10,2013-06-09 06:25:00,
2013-06-09 00:40:00,63.7,24.0,29.47,NNE,18,2.0,-999.0,22,-99.99,,,0.00,weatherlink.com 1.10,2013-06-09 06:40:00,
2013-06-09 00:55:00,64.3,23.0,29.46,NNE,32,4.0,-999.0,21,-99.99,,,0.00,weatherlink.com 1.10,2013-06-09 06:55:00,
2013-06-09 01:10:00,63.5,24.0,29.46,NE,40,0.0,-999.0,22,-99.99,,,0.00,weatherlink.com 1.10,2013-06-09 07:10:00,
2013-06-09 01:25:00,63.1,23.0,29.47,NE,40,0.0,-999.0,22,-99.99,,,0.00,weatherlink.com 1.10,2013-06-09 07:25:00,
2013-06-09 01:40:00,64.7,23.0,29.46,NE,40,2.0,-999.0,20,-99.99,,,0.00,weatherlink.com 1.10,2013-06-09 07:40:00,
2013-06-09 01:55:00,65.5,23.0,29.45,NE,39,2.0,-999.0,20,-99.99,,,0.00,weatherlink.com 1.10,2013-06-09 07:55:00,
2013-06-09 02:10:00,66.6,23.0,29.45,NE,44,0.0,-999.0,19,-99.99,,,0.00,weatherlink.com 1.10,2013-06-09 08:10:00,
2013-06-09 02:25:00,66.0,24.0,29.44,NNE,21,3.0,-999.0,20,-99.99,,,0.00,weatherlink.com 1.10,2013-06-09 08:25:00,
2013-06-09 02:40:00,64.3,23.0,29.45,NNE,22,0.0,-999.0,21,-99.99,,,0.00,weatherlink.com 1.10,2013-06-09 08:40:00,
2013-06-09 02:55:00,61.6,22.0,29.46,NNE,22,0.0,-999.0,22,-99.99,,,0.00,weatherlink.com 1.10,2013-06-09 08:55:00,
2013-06-09 03:10:00,61.2,26.0,29.46,NNE,22,0.0,-999.0,26,-99.99,,,0.00,weatherlink.com 1.10,2013-06-09 09:10:00,
2013-06-09 03:25:00,58.9,23.0,29.47,NNE,22,0.0,-999.0,25,-99.99,,,0.00,weatherlink.com 1.10,2013-06-09 09:25:00,
2013-06-09 03:40:00,60.2,23.0,29.49,NNE,22,0.0,-999.0,24,-99.99,,,0.00,weatherlink.com 1.10,2013-06-09 09:40:00,
2013-06-09 03:56:00,58.0,24.0,29.49,NNE,22,0.0,-999.0,27,-99.99,,,0.00,weatherlink.com 1.10,2013-06-09 09:56:00,
2013-06-09 04:11:00,58.3,22.0,29.50,NNE,22,0.0,-999.0,25,-99.99,,,0.00,weatherlink.com 1.10,2013-06-09 10:11:00,
2013-06-09 04:26:00,56.0,23.0,29.50,NNE,22,2.0,-999.0,28,-99.99,,,0.00,weatherlink.com 1.10,2013-06-09 10:26:00,
2013-06-09 04:41:00,55.1,22.0,29.52,NNE,22,0.0,-999.0,28,-99.99,,,0.00,weatherlink.com 1.10,2013-06-09 10:41:00,
2013-06-09 05:11:00,52.5,24.0,29.53,NNE,22,0.0,-999.0,33,-99.99,,,0.00,weatherlink.com 1.10,2013-06-09 11:11:00,
2013-06-09 05:27:00,52.8,24.0,29.54,NNE,22,3.0,-999.0,33,-99.99,,,0.00,weatherlink.com 1.10,2013-06-09 11:27:00,
2013-06-09 05:42:00,52.0,26.0,29.54,North,354,0.0,-999.0,36,-99.99,,,0.00,weatherlink.com 1.10,2013-06-09 11:42:00,
2013-06-09 05:56:00,51.3,26.0,29.56,North,354,0.0,-999.0,37,-99.99,,,0.00,weatherlink.com 1.10,2013-06-09 11:56:00,
2013-06-09 06:11:00,51.0,25.0,29.55,North,354,0.0,-999.0,37,-99.99,,,0.00,weatherlink.com 1.10,2013-06-09 12:11:00,
2013-06-09 06:26:00,52.8,28.0,29.57,North,354,0.0,-999.0,38,-99.99,,,0.00,weatherlink.com 1.10,2013-06-09 12:26:00,
2013-06-09 06:41:00,52.3,31.0,29.57,North,354,0.0,-999.0,45,-99.99,,,0.00,weatherlink.com 1.10,2013-06-09 12:41:00,
2013-06-09 06:57:00,55.7,32.0,29.58,North,354,2.0,-999.0,40,-99.99,,,0.00,weatherlink.com 1.10,2013-06-09 12:57:00,
2013-06-09 07:12:00,58.0,27.0,29.56,North,354,0.0,-999.0,31,-99.99,,,0.00,weatherlink.com 1.10,2013-06-09 13:12:00,
2013-06-09 07:28:00,60.5,33.0,29.56,North,354,0.0,-999.0,36,-99.99,,,0.00,weatherlink.com 1.10,2013-06-09 13:28:00,
2013-06-09 07:41:00,62.4,35.0,29.57,North,354,0.0,-999.0,36,-99.99,,,0.00,weatherlink.com 1.10,2013-06-09 13:41:00,
2013-06-09 07:57:00,63.9,33.0,29.56,North,354,0.0,-999.0,31,-99.99,,,0.00,weatherlink.com 1.10,2013-06-09 13:57:00,
2013-06-09 08:13:00,67.9,31.0,29.55,North,354,0.0,-999.0,25,-99.99,,,0.00,weatherlink.com 1.10,2013-06-09 14:13:00,
2013-06-09 08:28:00,70.4,31.0,29.54,North,354,0.0,-999.0,23,-99.99,,,0.00,weatherlink.com 1.10,2013-06-09 14:28:00,
2013-06-09 08:43:00,73.9,33.0,29.54,NNW,340,1.0,-999.0,22,-99.99,,,0.00,weatherlink.com 1.10,2013-06-09 14:43:00,
2013-06-09 08:57:00,74.4,32.0,29.53,West,264,3.0,-999.0,21,-99.99,,,0.00,weatherlink.com 1.10,2013-06-09 14:57:00,
2013-06-09 09:12:00,75.8,31.0,29.53,West,264,0.0,-999.0,19,-99.99,,,0.00,weatherlink.com 1.10,2013-06-09 15:12:00,
2013-06-09 09:28:00,78.5,30.0,29.51,South,175,4.0,-999.0,17,-99.99,,,0.00,weatherlink.com 1.10,2013-06-09 15:28:00,
2013-06-09 09:42:00,79.2,31.0,29.53,South,181,1.0,-999.0,17,-99.99,,,0.00,weatherlink.com 1.10,2013-06-09 15:42:00,
2013-06-09 09:58:00,80.1,30.0,29.52,ESE,114,4.0,-999.0,16,-99.99,,,0.00,weatherlink.com 1.10,2013-06-09 15:58:00,
2013-06-09 10:13:00,81.4,31.0,29.51,SSW,211,3.0,-999.0,16,-99.99,,,0.00,weatherlink.com 1.10,2013-06-09 16:13:00,
2013-06-09 10:29:00,82.4,30.0,29.51,SW,215,0.0,-999.0,15,-99.99,,,0.00,weatherlink.com 1.10,2013-06-09 16:29:00,
2013-06-09 10:44:00,83.2,27.0,29.55,SSW,213,1.0,-999.0,13,-99.99,,,0.00,weatherlink.com 1.10,2013-06-09 16:44:00,
2013-06-09 10:59:00,84.0,28.0,29.55,SSW,210,7.0,-999.0,13,-99.99,,,0.00,weatherlink.com 1.10,2013-06-09 16:59:00,
2013-06-09 11:13:00,85.1,29.0,29.54,SW,224,2.0,-999.0,13,-99.99,,,0.00,weatherlink.com 1.10,2013-06-09 17:13:00,
2013-06-09 11:28:00,85.7,27.0,29.54,SW,219,3.0,-999.0,12,-99.99,,,0.00,weatherlink.com 1.10,2013-06-09 17:28:00,
2013-06-09 11:44:00,86.5,28.0,29.57,WSW,238,3.0,-999.0,12,-99.99,,,0.00,weatherlink.com 1.10,2013-06-09 17:44:00,
2013-06-09 11:59:00,87.8,31.0,29.56,SW,214,6.0,-999.0,13,-99.99,,,0.00,weatherlink.com 1.10,2013-06-09 17:59:00,
2013-06-09 12:15:00,88.0,29.0,29.55,SSE,165,4.0,-999.0,12,-99.99,,,0.00,weatherlink.com 1.10,2013-06-09 18:15:00,
2013-06-09 12:30:00,89.3,28.0,29.54,SW,225,3.0,-999.0,11,-99.99,,,0.00,weatherlink.com 1.10,2013-06-09 18:30:00,
2013-06-09 12:44:00,90.1,31.0,29.54,SSE,160,3.0,-999.0,12,-99.99,,,0.00,weatherlink.com 1.10,2013-06-09 18:44:00,
2013-06-09 12:59:00,90.7,29.0,29.54,SW,228,6.0,-999.0,11,-99.99,,,0.00,weatherlink.com 1.10,2013-06-09 18:59:00,
2013-06-09 13:15:00,91.8,28.0,29.51,SE,136,4.0,-999.0,10,-99.99,,,0.00,weatherlink.com 1.10,2013-06-09 19:15:00,
2013-06-09 13:30:00,93.2,29.0,29.51,South,191,6.0,-999.0,10,-99.99,,,0.00,weatherlink.com 1.10,2013-06-09 19:30:00,
2013-06-09 13:46:00,93.4,24.0,29.48,West,265,11.0,-999.0,8,-99.99,,,0.00,weatherlink.com 1.10,2013-06-09 19:46:00,
2013-06-09 14:00:00,92.7,29.0,29.47,SSW,210,10.0,-999.0,10,-99.99,,,0.00,weatherlink.com 1.10,2013-06-09 20:00:00,
2013-06-09 14:16:00,94.9,28.0,29.47,South,186,1.0,-999.0,9,-99.99,,,0.00,weatherlink.com 1.10,2013-06-09 20:16:00,
2013-06-09 14:29:00,94.3,30.0,29.46,South,190,10.0,-999.0,10,-99.99,,,0.00,weatherlink.com 1.10,2013-06-09 20:29:00,
2013-06-09 14:45:00,94.0,30.0,29.50,SSW,203,1.0,-999.0,10,-99.99,,,0.00,weatherlink.com 1.10,2013-06-09 20:45:00,
2013-06-09 15:01:00,95.1,30.0,29.50,SSW,195,3.0,-999.0,10,-99.99,,,0.00,weatherlink.com 1.10,2013-06-09 21:01:00,
2013-06-09 15:16:00,95.6,28.0,29.47,SW,226,10.0,-999.0,9,-99.99,,,0.00,weatherlink.com 1.10,2013-06-09 21:16:00,
2013-06-09 15:30:00,95.1,28.0,29.47,WSW,249,16.0,-999.0,9,-99.99,,,0.00,weatherlink.com 1.10,2013-06-09 21:30:00,
2013-06-09 15:45:00,95.1,25.0,29.48,SW,236,12.0,-999.0,8,-99.99,,,0.00,weatherlink.com 1.10,2013-06-09 21:45:00,
2013-06-09 16:01:00,95.4,25.0,29.47,WSW,256,11.0,-999.0,8,-99.99,,,0.00,weatherlink.com 1.10,2013-06-09 22:01:00,
2013-06-09 16:17:00,95.6,25.0,29.46,WSW,250,16.0,-999.0,8,-99.99,,,0.00,weatherlink.com 1.10,2013-06-09 22:17:00,
2013-06-09 16:30:00,95.4,25.0,29.46,WSW,248,20.0,-999.0,8,-99.99,,,0.00,weatherlink.com 1.10,2013-06-09 22:30:00,
2013-06-09 17:16:00,94.5,25.0,29.50,WSW,243,12.0,-999.0,8,-99.99,,,0.00,weatherlink.com 1.10,2013-06-09 23:16:00,
2013-06-09 17:31:00,95.1,25.0,29.50,West,267,10.0,-999.0,8,-99.99,,,0.00,weatherlink.com 1.10,2013-06-09 23:31:00,
2013-06-09 17:47:00,94.9,25.0,29.48,WSW,238,15.0,-999.0,8,-99.99,,,0.00,weatherlink.com 1.10,2013-06-09 23:47:00,
2013-06-09 18:02:00,94.3,24.0,29.49,WSW,245,6.0,-999.0,8,-99.99,,,0.00,weatherlink.com 1.10,2013-06-10 00:02:00,
2013-06-09 18:16:00,94.0,24.0,29.49,SW,236,11.0,-999.0,8,-99.99,,,0.00,weatherlink.com 1.10,2013-06-10 00:16:00,
2013-06-09 18:32:00,93.8,24.0,29.45,West,259,13.0,-999.0,8,-99.99,,,0.00,weatherlink.com 1.10,2013-06-10 00:32:00,
2013-06-09 18:47:00,93.4,24.0,29.45,WSW,255,11.0,-999.0,8,-99.99,,,0.00,weatherlink.com 1.10,2013-06-10 00:47:00,
2013-06-09 19:03:00,92.5,23.0,29.45,WSW,252,11.0,-999.0,8,-99.99,,,0.00,weatherlink.com 1.10,2013-06-10 01:03:00,
2013-06-09 19:16:00,92.3,23.0,29.47,WSW,251,18.0,-999.0,8,-99.99,,,0.00,weatherlink.com 1.10,2013-06-10 01:16:00,
2013-06-09 19:32:00,91.8,22.0,29.43,West,259,11.0,-999.0,8,-99.99,,,0.00,weatherlink.com 1.10,2013-06-10 01:32:00,
2013-06-09 19:47:00,91.2,22.0,29.43,West,268,10.0,-999.0,8,-99.99,,,0.00,weatherlink.com 1.10,2013-06-10 01:47:00,
2013-06-09 20:02:00,90.1,21.0,29.44,SW,229,4.0,-999.0,8,-99.99,,,0.00,weatherlink.com 1.10,2013-06-10 02:02:00,
2013-06-09 20:17:00,88.8,23.0,29.44,WSW,251,7.0,-999.0,9,-99.99,,,0.00,weatherlink.com 1.10,2013-06-10 02:17:00,
2013-06-09 20:32:00,87.2,22.0,29.42,WSW,250,5.0,-999.0,9,-99.99,,,0.00,weatherlink.com 1.10,2013-06-10 02:32:00,
2013-06-09 20:47:00,85.3,20.0,29.43,West,265,3.0,-999.0,9,-99.99,,,0.00,weatherlink.com 1.10,2013-06-10 02:47:00,
2013-06-09 21:02:00,84.1,19.0,29.44,West,276,2.0,-999.0,9,-99.99,,,0.00,weatherlink.com 1.10,2013-06-10 03:02:00,
2013-06-09 21:17:00,84.5,20.0,29.43,WNW,291,2.0,-999.0,9,-99.99,,,0.00,weatherlink.com 1.10,2013-06-10 03:17:00,
2013-06-09 21:32:00,80.9,22.0,29.44,WNW,291,0.0,-999.0,11,-99.99,,,0.00,weatherlink.com 1.10,2013-06-10 03:32:00,
2013-06-09 21:47:00,74.9,22.0,29.47,SW,236,0.0,-999.0,14,-99.99,,,0.00,weatherlink.com 1.10,2013-06-10 03:47:00,
2013-06-09 22:02:00,76.5,22.0,29.46,SW,236,0.0,-999.0,13,-99.99,,,0.00,weatherlink.com 1.10,2013-06-10 04:02:00,
2013-06-09 22:17:00,76.0,23.0,29.48,SW,236,0.0,-999.0,14,-99.99,,,0.00,weatherlink.com 1.10,2013-06-10 04:17:00,
2013-06-09 22:32:00,74.6,22.0,29.46,SW,236,0.0,-999.0,14,-99.99,,,0.00,weatherlink.com 1.10,2013-06-10 04:32:00,
2013-06-09 22:47:00,73.0,21.0,29.47,NW,314,3.0,-999.0,14,-99.99,,,0.00,weatherlink.com 1.10,2013-06-10 04:47:00,
2013-06-09 23:02:00,69.3,23.0,29.50,North,359,4.0,-999.0,17,-99.99,,,0.00,weatherlink.com 1.10,2013-06-10 05:02:00,
2013-06-09 23:17:00,67.3,22.0,29.51,North,359,1.0,-999.0,18,-99.99,,,0.00,weatherlink.com 1.10,2013-06-10 05:17:00,
2013-06-09 23:32:00,65.8,22.0,29.50,North,359,2.0,-999.0,19,-99.99,,,0.00,weatherlink.com 1.10,2013-06-10 05:32:00,
2013-06-09 23:47:00,63.9,23.0,29.51,North,359,1.0,-999.0,21,-99.99,,,0.00,weatherlink.com 1.10,2013-06-10 05:47:00,